| time (UTC) | temp F | wind direction | speed MPH | gust MPH | rain 1hr in | rain 24hr in | rain mn in | humidity % | barometer mb |
| 20260902192516 | 67 | 64 | 6.0 | 12.0 | 0.00 | 0.07 | 0.04 | 92 | 1017.0 |
| 20260902192023 | 67 | 105 | 5.0 | 11.0 | 0.00 | 0.07 | 0.04 | 92 | 1017.0 |
| 20260902191537 | 67 | 82 | 6.0 | 11.0 | 0.00 | 0.07 | 0.04 | 92 | 1017.1 |
| 20260902191017 | 67 | 70 | 2.0 | 6.0 | 0.00 | 0.07 | 0.04 | 94 | 1016.9 |
| 20260902190521 | 66 | 82 | 2.0 | 6.0 | 0.00 | 0.07 | 0.04 | 93 | 1017.0 |
| 20260902190022 | 67 | 62 | 2.0 | 8.0 | 0.00 | 0.07 | 0.04 | 93 | 1017.0 |
| 20260902185508 | 67 | 105 | 4.0 | 8.0 | 0.00 | 0.08 | 0.04 | 92 | 1017.1 |
| 20260902185016 | 68 | 65 | 3.0 | 8.0 | 0.00 | 0.08 | 0.04 | 91 | 1017.2 |
| 20260902184533 | 69 | 75 | 1.0 | 4.0 | 0.00 | 0.08 | 0.04 | 93 | 1017.3 |
| 20260902184028 | 68 | 44 | 1.0 | 3.0 | 0.00 | 0.08 | 0.04 | 93 | 1017.1 |
| 20260902183514 | 68 | 4 | 0.0 | 3.0 | 0.01 | 0.08 | 0.04 | 94 | 1016.9 |
| 20260902183017 | 67 | 302 | 1.0 | 3.0 | 0.01 | 0.08 | 0.04 | 94 | 1016.9 |
| 20260902182526 | 67 | 55 | 0.0 | 4.0 | 0.01 | 0.08 | 0.04 | 95 | 1016.7 |
| 20260902182008 | 66 | 54 | 1.0 | 6.0 | 0.01 | 0.08 | 0.04 | 96 | 1016.7 |
| 20260902181517 | 66 | 322 | 3.0 | 6.0 | 0.02 | 0.08 | 0.04 | 96 | 1016.7 |
| 20260902181017 | 65 | 305 | 0.0 | 7.0 | 0.02 | 0.08 | 0.04 | 96 | 1016.8 |
| 20260902180526 | 65 | 78 | 1.0 | 9.0 | 0.02 | 0.08 | 0.04 | 95 | 1017.1 |
| 20260902180013 | 65 | 60 | 3.0 | 8.0 | 0.02 | 0.08 | 0.04 | 96 | 1017.1 |
| 20260902175515 | 65 | 82 | 4.0 | 9.0 | 0.03 | 0.11 | 0.04 | 96 | 1017.0 |
| 20260902175022 | 65 | 60 | 2.0 | 9.0 | 0.03 | 0.11 | 0.04 | 96 | 1017.1 |
| 20260902174526 | 65 | 41 | 0.0 | 4.0 | 0.03 | 0.11 | 0.04 | 96 | 1017.2 |
| 20260902174011 | 65 | 89 | 0.0 | 4.0 | 0.03 | 0.11 | 0.04 | 96 | 1017.0 |
| 20260902173519 | 64 | 81 | 0.0 | 8.0 | 0.03 | 0.10 | 0.03 | 96 | 1017.0 |
| 20260902173019 | 64 | 60 | 4.0 | 9.0 | 0.03 | 0.10 | 0.03 | 96 | 1016.6 |
| 20260902172524 | 64 | 45 | 3.0 | 9.0 | 0.03 | 0.10 | 0.03 | 95 | 1016.4 |
| 20260902172012 | 64 | 48 | 2.0 | 7.0 | 0.03 | 0.10 | 0.03 | 95 | 1016.4 |
| 20260902171521 | 65 | 101 | 0.0 | 8.0 | 0.02 | 0.09 | 0.02 | 96 | 1016.9 |
| 20260902171021 | 65 | 302 | 2.0 | 8.0 | 0.02 | 0.09 | 0.02 | 96 | 1017.0 |
| 20260902170511 | 64 | 335 | 1.0 | 8.0 | 0.02 | 0.09 | 0.02 | 97 | 1017.1 |
| 20260902170014 | 64 | 307 | 2.0 | 8.0 | 0.02 | 0.09 | 0.02 | 97 | 1017.5 |
| 20260902165523 | 64 | 108 | 1.0 | 7.0 | 0.01 | 0.11 | 0.01 | 97 | 1017.7 |
| 20260902165009 | 63 | 318 | 1.0 | 4.0 | 0.01 | 0.11 | 0.01 | 97 | 1017.9 |
| 20260902164516 | 62 | 316 | 0.0 | 4.0 | 0.01 | 0.11 | 0.01 | 96 | 1018.2 |
| 20260902164022 | 62 | 44 | 0.0 | 4.0 | 0.01 | 0.11 | 0.01 | 96 | 1018.4 |
| 20260902163507 | 62 | 323 | 0.0 | 4.0 | 0.00 | 0.10 | 0.00 | 96 | 1018.3 |
| 20260902163014 | 62 | 47 | 0.0 | 4.0 | 0.00 | 0.10 | 0.00 | 96 | 1018.3 |
| 20260902162523 | 62 | 53 | 1.0 | 6.0 | 0.00 | 0.10 | 0.00 | 96 | 1018.1 |
| 20260902162008 | 62 | 108 | 2.0 | 6.0 | 0.00 | 0.10 | 0.00 | 95 | 1018.3 |
| 20260902161516 | 62 | 27 | 1.0 | 7.0 | 0.00 | 0.10 | 0.00 | 95 | 1018.2 |
| 20260902161025 | 62 | 75 | 3.0 | 7.0 | 0.00 | 0.10 | 0.00 | 95 | 1018.2 |
| 20260902160514 | 62 | 82 | 2.0 | 9.0 | 0.00 | 0.10 | 0.00 | 95 | 1018.0 |
| 20260902160015 | 63 | 91 | 2.0 | 9.0 | 0.00 | 0.10 | 0.00 | 95 | 1017.7 |
| 20260902155525 | 63 | 67 | 3.0 | 9.0 | 0.00 | 0.11 | 0.00 | 95 | 1017.7 |
| 20260902155012 | 63 | 94 | 3.0 | 10.0 | 0.00 | 0.11 | 0.00 | 95 | 1017.7 |
| 20260902154526 | 63 | 84 | 3.0 | 9.0 | 0.00 | 0.11 | 0.00 | 95 | 1017.9 |
| 20260902154006 | 63 | 41 | 4.0 | 9.0 | 0.00 | 0.11 | 0.00 | 95 | 1017.8 |
| 20260902153535 | 63 | 69 | 4.0 | 9.0 | 0.00 | 0.11 | 0.00 | 95 | 1018.1 |
| 20260902153021 | 63 | 74 | 1.0 | 7.0 | 0.00 | 0.11 | 0.00 | 96 | 1018.1 |
| 20260902152522 | 63 | 51 | 3.0 | 9.0 | 0.00 | 0.11 | 0.00 | 95 | 1018.2 |
| 20260902152026 | 63 | 82 | 3.0 | 9.0 | 0.00 | 0.11 | 0.00 | 96 | 1018.3 |
| 20260902151511 | 63 | 56 | 1.0 | 7.0 | 0.00 | 0.11 | 0.00 | 96 | 1018.3 |
| 20260902151016 | 63 | 53 | 2.0 | 7.0 | 0.00 | 0.11 | 0.00 | 96 | 1018.5 |
| 20260902150524 | 63 | 96 | 1.0 | 5.0 | 0.00 | 0.11 | 0.00 | 96 | 1018.6 |
| 20260902150012 | 63 | 56 | 2.0 | 4.0 | 0.00 | 0.11 | 0.00 | 96 | 1018.7 |
| 20260902145520 | 63 | 84 | 0.0 | 3.0 | 0.00 | 0.13 | 0.00 | 96 | 1018.5 |
| 20260902145016 | 63 | 67 | 0.0 | 4.0 | 0.00 | 0.13 | 0.00 | 96 | 1018.4 |
| 20260902144527 | 63 | 331 | 0.0 | 6.0 | 0.00 | 0.13 | 0.00 | 96 | 1018.4 |
| 20260902144023 | 63 | 68 | 2.0 | 9.0 | 0.00 | 0.13 | 0.00 | 96 | 1018.3 |
| 20260902143529 | 63 | 47 | 3.0 | 9.0 | 0.00 | 0.13 | 0.00 | 96 | 1018.4 |
| 20260902143014 | 63 | 55 | 3.0 | 8.0 | 0.00 | 0.13 | 0.00 | 96 | 1018.3 |
| 20260902142521 | 63 | 88 | 2.0 | 6.0 | 0.00 | 0.13 | 0.00 | 96 | 1018.3 |
| 20260902142025 | 63 | 77 | 1.0 | 6.0 | 0.00 | 0.13 | 0.00 | 96 | 1018.4 |
| 20260902141511 | 63 | 23 | 1.0 | 6.0 | 0.00 | 0.13 | 0.00 | 96 | 1018.4 |
| 20260902141015 | 63 | 112 | 1.0 | 5.0 | 0.00 | 0.13 | 0.00 | 96 | 1018.5 |
| 20260902140520 | 63 | 58 | 0.0 | 6.0 | 0.00 | 0.13 | 0.00 | 96 | 1018.5 |
| 20260902140021 | 63 | 123 | 1.0 | 6.0 | 0.00 | 0.13 | 0.00 | 96 | 1018.4 |
| 20260902135510 | 63 | 147 | 1.0 | 6.0 | 0.00 | 0.13 | 0.00 | 97 | 1018.3 |
| 20260902135016 | 63 | 57 | 0.0 | 9.0 | 0.00 | 0.13 | 0.00 | 97 | 1018.2 |
| 20260902134523 | 63 | 162 | 2.0 | 11.0 | 0.00 | 0.13 | 0.00 | 96 | 1018.0 |
| 20260902134009 | 63 | 62 | 3.0 | 11.0 | 0.00 | 0.13 | 0.00 | 96 | 1017.9 |
| 20260902133516 | 63 | 72 | 2.0 | 11.0 | 0.00 | 0.13 | 0.00 | 97 | 1017.9 |
| 20260902133017 | 63 | 60 | 3.0 | 11.0 | 0.00 | 0.13 | 0.00 | 97 | 1018.0 |
| 20260902132527 | 63 | 67 | 5.0 | 11.0 | 0.00 | 0.13 | 0.00 | 97 | 1017.9 |
| 20260902132014 | 63 | 68 | 4.0 | 9.0 | 0.00 | 0.13 | 0.00 | 98 | 1017.9 |
| 20260902131521 | 63 | 60 | 4.0 | 8.0 | 0.00 | 0.13 | 0.00 | 98 | 1018.0 |
| 20260902131024 | 63 | 82 | 3.0 | 6.0 | 0.00 | 0.13 | 0.00 | 98 | 1018.0 |
| 20260902130513 | 63 | 75 | 3.0 | 7.0 | 0.00 | 0.13 | 0.00 | 98 | 1018.1 |
| 20260902130017 | 63 | 96 | 2.0 | 6.0 | 0.00 | 0.13 | 0.00 | 98 | 1018.2 |
| 20260902125522 | 63 | 77 | 1.0 | 6.0 | 0.00 | 0.15 | 0.00 | 98 | 1018.2 |
| 20260902125005 | 62 | 165 | 3.0 | 6.0 | 0.00 | 0.15 | 0.00 | 98 | 1018.2 |
| 20260902124515 | 62 | 80 | 3.0 | 7.0 | 0.00 | 0.15 | 0.00 | 98 | 1018.1 |
| 20260902124019 | 62 | 179 | 2.0 | 8.0 | 0.00 | 0.15 | 0.00 | 98 | 1018.2 |
| 20260902123508 | 61 | 122 | 1.0 | 8.0 | 0.00 | 0.15 | 0.00 | 98 | 1018.1 |
| 20260902123012 | 61 | 71 | 2.0 | 5.0 | 0.00 | 0.15 | 0.00 | 98 | 1018.0 |
| 20260902122519 | 61 | 47 | 0.0 | 4.0 | 0.00 | 0.15 | 0.00 | 98 | 1018.1 |
| 20260902122008 | 61 | 44 | 0.0 | 4.0 | 0.00 | 0.15 | 0.00 | 98 | 1017.8 |
| 20260902121556 | 61 | 4 | 0.0 | 6.0 | 0.00 | 0.15 | 0.00 | 98 | 1017.8 |
| 20260902121055 | 61 | 10 | 1.0 | 7.0 | 0.00 | 0.15 | 0.00 | 98 | 1017.7 |
| 20260902120655 | 61 | 81 | 2.0 | 9.0 | 0.00 | 0.15 | 0.00 | 98 | 1017.7 |
| 20260902120106 | 61 | 56 | 4.0 | 9.0 | 0.00 | 0.15 | 0.00 | 98 | 1017.7 |
| 20260902115556 | 61 | 96 | 1.0 | 6.0 | 0.00 | 0.25 | 0.00 | 98 | 1017.6 |
| 20260902115056 | 61 | 60 | 3.0 | 6.0 | 0.00 | 0.25 | 0.00 | 98 | 1017.6 |
| 20260902114554 | 61 | 82 | 0.0 | 6.0 | 0.00 | 0.25 | 0.00 | 98 | 1017.7 |
| 20260902114054 | 61 | 350 | 0.0 | 6.0 | 0.00 | 0.25 | 0.00 | 98 | 1017.6 |
| 20260902113553 | 61 | 15 | 1.0 | 7.0 | 0.00 | 0.25 | 0.00 | 98 | 1017.4 |
| 20260902113053 | 61 | 72 | 4.0 | 8.0 | 0.00 | 0.25 | 0.00 | 98 | 1017.4 |
| 20260902112555 | 61 | 60 | 0.0 | 4.0 | 0.00 | 0.25 | 0.00 | 98 | 1017.5 |
| 20260902112053 | 61 | 328 | 0.0 | 6.0 | 0.00 | 0.25 | 0.00 | 98 | 1017.6 |
| 20260902111602 | 62 | 20 | 0.0 | 6.0 | 0.00 | 0.25 | 0.00 | 98 | 1017.8 |
| 20260902111052 | 62 | 70 | 2.0 | 6.0 | 0.00 | 0.25 | 0.00 | 98 | 1017.7 |
| 20260902110552 | 62 | 75 | 0.0 | 4.0 | 0.00 | 0.25 | 0.00 | 98 | 1017.8 |
| 20260902110051 | 62 | 314 | 0.0 | 5.0 | 0.00 | 0.25 | 0.00 | 98 | 1017.8 |
| 20260902105551 | 62 | 173 | 0.0 | 6.0 | 0.00 | 0.27 | 0.00 | 98 | 1018.0 |
| 20260902105051 | 61 | 51 | 1.0 | 8.0 | 0.00 | 0.27 | 0.00 | 98 | 1017.9 |
| 20260902104551 | 61 | 91 | 4.0 | 9.0 | 0.00 | 0.27 | 0.00 | 98 | 1018.0 |
| 20260902104051 | 61 | 96 | 4.0 | 9.0 | 0.00 | 0.27 | 0.00 | 98 | 1017.9 |
| 20260902103550 | 61 | 305 | 0.0 | 4.0 | 0.00 | 0.27 | 0.00 | 98 | 1017.8 |
| 20260902103050 | 61 | 73 | 0.0 | 4.0 | 0.00 | 0.27 | 0.00 | 98 | 1017.8 |
| 20260902102551 | 61 | 355 | 0.0 | 3.0 | 0.00 | 0.27 | 0.00 | 98 | 1017.8 |
| 20260902102050 | 61 | 69 | 0.0 | 3.0 | 0.00 | 0.27 | 0.00 | 98 | 1017.9 |
| 20260902101550 | 61 | 97 | 0.0 | 4.0 | 0.00 | 0.27 | 0.00 | 98 | 1018.1 |
| 20260902101048 | 61 | 54 | 0.0 | 4.0 | 0.00 | 0.27 | 0.00 | 98 | 1018.0 |
| 20260902100548 | 61 | 56 | 0.0 | 4.0 | 0.00 | 0.27 | 0.00 | 98 | 1017.8 |
| 20260902100101 | 61 | 92 | 0.0 | 4.0 | 0.00 | 0.27 | 0.00 | 98 | 1017.8 |
| 20260902095547 | 61 | 115 | 0.0 | 4.0 | 0.00 | 0.36 | 0.00 | 98 | 1017.7 |
| 20260902095049 | 61 | 37 | 0.0 | 4.0 | 0.00 | 0.36 | 0.00 | 98 | 1017.7 |
| 20260902094546 | 61 | 58 | 2.0 | 4.0 | 0.00 | 0.36 | 0.00 | 98 | 1017.6 |
| 20260902094046 | 61 | 58 | 0.0 | 3.0 | 0.00 | 0.36 | 0.00 | 98 | 1017.7 |
| 20260902093545 | 61 | 89 | 0.0 | 1.0 | 0.00 | 0.36 | 0.00 | 98 | 1017.6 |
| 20260902093044 | 61 | 57 | 0.0 | 5.0 | 0.00 | 0.36 | 0.00 | 98 | 1017.6 |
| 20260902092544 | 61 | 68 | 1.0 | 5.0 | 0.00 | 0.36 | 0.00 | 98 | 1017.5 |
| 20260902092044 | 61 | 4 | 0.0 | 1.0 | 0.00 | 0.36 | 0.00 | 98 | 1017.4 |
| 20260902091549 | 61 | 5 | 0.0 | 1.0 | 0.00 | 0.36 | 0.00 | 98 | 1017.4 |
| 20260902091045 | 61 | 5 | 0.0 | 4.0 | 0.00 | 0.36 | 0.00 | 98 | 1017.4 |
| 20260902090543 | 61 | 4 | 0.0 | 6.0 | 0.00 | 0.36 | 0.00 | 98 | 1017.4 |
| 20260902090043 | 61 | 83 | 2.0 | 6.0 | 0.00 | 0.36 | 0.00 | 98 | 1017.4 |
| 20260902085542 | 61 | 117 | 1.0 | 3.0 | 0.00 | 0.40 | 0.00 | 98 | 1017.4 |
| 20260902085042 | 61 | 312 | 0.0 | 1.0 | 0.00 | 0.40 | 0.00 | 98 | 1017.3 |
| 20260902084542 | 61 | 310 | 0.0 | 1.0 | 0.00 | 0.40 | 0.00 | 98 | 1017.3 |
| 20260902084045 | 61 | 76 | 0.0 | 1.0 | 0.00 | 0.40 | 0.00 | 98 | 1017.3 |
| 20260902083540 | 61 | 44 | 0.0 | 1.0 | 0.00 | 0.40 | 0.00 | 98 | 1017.2 |
| 20260902083041 | 61 | 87 | 0.0 | 2.0 | 0.00 | 0.40 | 0.00 | 98 | 1017.3 |
| 20260902082640 | 61 | 86 | 0.0 | 2.0 | 0.00 | 0.40 | 0.00 | 98 | 1017.2 |
| 20260902082040 | 61 | 328 | 0.0 | 4.0 | 0.00 | 0.40 | 0.00 | 98 | 1017.1 |
| 20260902081539 | 61 | 42 | 0.0 | 5.0 | 0.00 | 0.40 | 0.00 | 98 | 1016.9 |
| 20260902081038 | 61 | 290 | 0.0 | 3.0 | 0.00 | 0.40 | 0.00 | 98 | 1016.9 |
| 20260902080538 | 62 | 83 | 0.0 | 5.0 | 0.00 | 0.40 | 0.00 | 98 | 1016.9 |
| 20260902080038 | 62 | 53 | 1.0 | 6.0 | 0.00 | 0.40 | 0.00 | 98 | 1016.9 |
| 20260902075538 | 62 | 131 | 0.0 | 5.0 | 0.00 | 0.51 | 0.00 | 98 | 1016.9 |
| 20260902075038 | 62 | 307 | 0.0 | 3.0 | 0.00 | 0.51 | 0.00 | 98 | 1016.9 |
| 20260902074541 | 62 | 41 | 0.0 | 3.0 | 0.00 | 0.51 | 0.00 | 98 | 1016.9 |
| 20260902074037 | 62 | 291 | 0.0 | 3.0 | 0.00 | 0.51 | 0.00 | 98 | 1016.9 |
| 20260902073537 | 62 | 293 | 0.0 | 3.0 | 0.00 | 0.51 | 0.00 | 98 | 1016.9 |
| 20260902073037 | 62 | 11 | 0.0 | 2.0 | 0.00 | 0.51 | 0.00 | 98 | 1017.0 |
| 20260902072535 | 62 | 316 | 0.0 | 3.0 | 0.00 | 0.51 | 0.00 | 98 | 1017.1 |
| 20260902072038 | 62 | 309 | 0.0 | 6.0 | 0.00 | 0.51 | 0.00 | 98 | 1017.1 |
| 20260902071535 | 62 | 303 | 0.0 | 6.0 | 0.00 | 0.51 | 0.00 | 98 | 1017.1 |
| 20260902071038 | 62 | 312 | 0.0 | 4.0 | 0.00 | 0.51 | 0.00 | 98 | 1017.1 |
| 20260902070535 | 62 | 6 | 0.0 | 3.0 | 0.00 | 0.51 | 0.00 | 98 | 1017.1 |
| 20260902070034 | 62 | 86 | 0.0 | 3.0 | 0.00 | 0.51 | 0.00 | 98 | 1017.2 |
| 20260902065534 | 62 | 332 | 0.0 | 1.0 | 0.00 | 0.51 | 0.00 | 98 | 1017.3 |
| 20260902065034 | 62 | 328 | 0.0 | 2.0 | 0.00 | 0.51 | 0.00 | 98 | 1017.3 |
| 20260902064534 | 62 | 309 | 0.0 | 5.0 | 0.00 | 0.51 | 0.00 | 98 | 1017.4 |
| 20260902064033 | 62 | 306 | 1.0 | 5.0 | 0.00 | 0.51 | 0.00 | 98 | 1017.3 |
| 20260902063534 | 62 | 88 | 0.0 | 4.0 | 0.00 | 0.51 | 0.00 | 98 | 1017.3 |
| 20260902063041 | 62 | 139 | 0.0 | 2.0 | 0.00 | 0.51 | 0.00 | 98 | 1017.4 |
| 20260902062534 | 63 | 326 | 0.0 | 1.0 | 0.00 | 0.51 | 0.00 | 98 | 1017.3 |
| 20260902062035 | 63 | 326 | 0.0 | 2.0 | 0.00 | 0.51 | 0.00 | 98 | 1017.5 |
| 20260902061530 | 63 | 71 | 0.0 | 2.0 | 0.00 | 0.51 | 0.00 | 98 | 1017.4 |
| 20260902061031 | 63 | 281 | 0.0 | 3.0 | 0.00 | 0.51 | 0.00 | 98 | 1017.5 |
| 20260902060531 | 63 | 321 | 0.0 | 5.0 | 0.00 | 0.51 | 0.00 | 98 | 1017.5 |
| 20260902060029 | 63 | 54 | 1.0 | 5.0 | 0.00 | 0.51 | 0.00 | 98 | 1017.4 |
| 20260902055528 | 63 | 11 | 0.0 | 3.0 | 0.00 | 0.51 | 0.00 | 98 | 1017.3 |
| 20260902055029 | 63 | 56 | 0.0 | 3.0 | 0.00 | 0.51 | 0.00 | 98 | 1017.3 |
| 20260902054534 | 63 | 306 | 0.0 | 2.0 | 0.00 | 0.51 | 0.00 | 98 | 1017.3 |
| 20260902054028 | 63 | 15 | 0.0 | 2.0 | 0.00 | 0.51 | 0.00 | 98 | 1017.2 |
| 20260902053529 | 63 | 294 | 0.0 | 2.0 | 0.00 | 0.51 | 0.00 | 98 | 1017.2 |
| 20260902053028 | 63 | 269 | 0.0 | 1.0 | 0.00 | 0.51 | 0.00 | 98 | 1017.2 |
| 20260902052530 | 63 | 270 | 0.0 | 1.0 | 0.00 | 0.51 | 0.00 | 98 | 1017.3 |
| 20260902052029 | 63 | 270 | 0.0 | 2.0 | 0.00 | 0.51 | 0.00 | 98 | 1017.2 |
| 20260902051524 | 63 | 274 | 0.0 | 5.0 | 0.00 | 0.51 | 0.00 | 98 | 1016.9 |
| 20260902051024 | 63 | 288 | 0.0 | 5.0 | 0.00 | 0.51 | 0.00 | 98 | 1016.8 |
| 20260902050527 | 63 | 64 | 0.0 | 4.0 | 0.00 | 0.51 | 0.00 | 98 | 1016.7 |
| 20260902050051 | 63 | 59 | 0.0 | 3.0 | 0.00 | 0.51 | 0.00 | 98 | 1016.8 |
| 20260902045526 | 64 | 355 | 0.0 | 2.0 | 0.00 | 0.51 | 0.00 | 98 | 1016.7 |
| 20260902045022 | 64 | 297 | 0.0 | 3.0 | 0.00 | 0.51 | 0.00 | 98 | 1016.7 |
| 20260902044522 | 64 | 94 | 0.0 | 3.0 | 0.00 | 0.51 | 0.00 | 98 | 1016.7 |
| 20260902044021 | 64 | 26 | 0.0 | 2.0 | 0.00 | 0.51 | 0.00 | 98 | 1016.6 |
| 20260902043520 | 64 | 27 | 0.0 | 4.0 | 0.00 | 0.51 | 0.00 | 98 | 1016.5 |
| 20260902043029 | 64 | 357 | 0.0 | 4.0 | 0.00 | 0.51 | 0.00 | 98 | 1016.4 |
| 20260902042523 | 64 | 33 | 0.0 | 4.0 | 0.00 | 0.51 | 0.00 | 98 | 1016.3 |
| 20260902042019 | 64 | 79 | 1.0 | 4.0 | 0.00 | 0.51 | 0.00 | 98 | 1016.3 |
| 20260902041516 | 64 | 134 | 0.0 | 5.0 | 0.00 | 0.51 | 0.00 | 98 | 1016.2 |
| 20260902041016 | 64 | 71 | 0.0 | 4.0 | 0.00 | 0.51 | 0.00 | 98 | 1016.2 |
| 20260902040516 | 64 | 88 | 0.0 | 1.0 | 0.00 | 0.51 | 0.00 | 98 | 1016.2 |
| 20260902040019 | 64 | 79 | 0.0 | 1.0 | 0.00 | 0.51 | 0.00 | 98 | 1016.2 |
| 20260902035516 | 64 | 1 | 0.0 | 4.0 | 0.00 | 0.51 | 0.51 | 98 | 1016.2 |
| 20260902035017 | 64 | 60 | 0.0 | 4.0 | 0.00 | 0.51 | 0.51 | 98 | 1016.1 |
| 20260902034521 | 64 | 307 | 0.0 | 2.0 | 0.00 | 0.51 | 0.51 | 98 | 1016.1 |
| 20260902034014 | 64 | 61 | 0.0 | 2.0 | 0.00 | 0.51 | 0.51 | 98 | 1016.1 |
| 20260902033515 | 64 | 299 | 0.0 | 2.0 | 0.00 | 0.51 | 0.51 | 98 | 1016.1 |
| 20260902033014 | 64 | 293 | 0.0 | 2.0 | 0.00 | 0.51 | 0.51 | 98 | 1016.2 |
| 20260902032516 | 64 | 85 | 0.0 | 1.0 | 0.00 | 0.51 | 0.51 | 98 | 1016.1 |
| 20260902032014 | 64 | 84 | 0.0 | 1.0 | 0.00 | 0.51 | 0.51 | 98 | 1016.0 |
| 20260902031514 | 64 | 30 | 0.0 | 0.0 | 0.00 | 0.51 | 0.51 | 98 | 1016.0 |
| 20260902031016 | 64 | 30 | 0.0 | 0.0 | 0.00 | 0.51 | 0.51 | 98 | 1015.9 |
| 20260902030515 | 64 | 30 | 0.0 | 1.0 | 0.00 | 0.51 | 0.51 | 98 | 1016.0 |
| 20260902030013 | 64 | 30 | 0.0 | 2.0 | 0.00 | 0.51 | 0.51 | 98 | 1016.0 |
| 20260902025513 | 64 | 309 | 0.0 | 2.0 | 0.00 | 0.51 | 0.51 | 98 | 1016.1 |
| 20260902025013 | 65 | 297 | 0.0 | 3.0 | 0.01 | 0.51 | 0.51 | 98 | 1016.1 |
| 20260902024513 | 65 | 275 | 0.0 | 2.0 | 0.01 | 0.51 | 0.51 | 98 | 1016.2 |
| 20260902024012 | 65 | 301 | 0.0 | 2.0 | 0.01 | 0.51 | 0.51 | 98 | 1016.3 |
| 20260902023512 | 65 | 83 | 0.0 | 2.0 | 0.01 | 0.51 | 0.51 | 98 | 1016.4 |
| 20260902023012 | 65 | 308 | 0.0 | 1.0 | 0.01 | 0.51 | 0.51 | 98 | 1016.5 |
| 20260902022513 | 65 | 308 | 0.0 | 1.0 | 0.01 | 0.51 | 0.51 | 98 | 1016.5 |
| 20260902022012 | 65 | 308 | 0.0 | 1.0 | 0.01 | 0.51 | 0.51 | 98 | 1016.5 |
| 20260902021511 | 65 | 308 | 0.0 | 1.0 | 0.01 | 0.51 | 0.51 | 98 | 1016.6 |
| 20260902021011 | 65 | 308 | 0.0 | 0.0 | 0.01 | 0.51 | 0.51 | 98 | 1016.5 |
| 20260902020511 | 65 | 307 | 0.0 | 0.0 | 0.01 | 0.51 | 0.51 | 98 | 1016.4 |
| 20260902020011 | 65 | 307 | 0.0 | 0.0 | 0.01 | 0.51 | 0.51 | 98 | 1016.5 |
| 20260902015510 | 65 | 307 | 0.0 | 0.0 | 0.01 | 0.51 | 0.51 | 98 | 1016.5 |
| 20260902015011 | 65 | 307 | 0.0 | 0.0 | 0.00 | 0.50 | 0.50 | 98 | 1016.5 |
| 20260902014511 | 65 | 307 | 0.0 | 1.0 | 0.00 | 0.50 | 0.50 | 98 | 1016.4 |
| 20260902014013 | 65 | 307 | 0.0 | 1.0 | 0.00 | 0.50 | 0.50 | 98 | 1016.4 |
| 20260902013510 | 65 | 309 | 0.0 | 1.0 | 0.00 | 0.50 | 0.50 | 98 | 1016.4 |
| 20260902013010 | 65 | 296 | 0.0 | 1.0 | 0.00 | 0.50 | 0.50 | 98 | 1016.2 |
| 20260902012510 | 65 | 297 | 0.0 | 1.0 | 0.00 | 0.50 | 0.50 | 98 | 1016.1 |
| 20260902012010 | 65 | 58 | 0.0 | 1.0 | 0.00 | 0.50 | 0.50 | 98 | 1016.1 |
| 20260902011509 | 65 | 79 | 0.0 | 2.0 | 0.00 | 0.50 | 0.50 | 98 | 1015.9 |
| 20260902011012 | 65 | 79 | 0.0 | 2.0 | 0.00 | 0.50 | 0.50 | 98 | 1016.0 |
| 20260902010509 | 64 | 83 | 0.0 | 0.0 | 0.00 | 0.50 | 0.50 | 98 | 1016.0 |
| 20260902010011 | 65 | 83 | 0.0 | 0.0 | 0.00 | 0.50 | 0.50 | 98 | 1015.8 |
| 20260902005509 | 65 | 83 | 0.0 | 0.0 | 0.00 | 0.50 | 0.50 | 98 | 1015.8 |
| 20260902005009 | 65 | 84 | 0.0 | 0.0 | 0.00 | 0.50 | 0.50 | 98 | 1015.7 |
| 20260902004512 | 65 | 83 | 0.0 | 0.0 | 0.00 | 0.50 | 0.50 | 98 | 1015.6 |
| 20260902004008 | 65 | 84 | 0.0 | 0.0 | 0.00 | 0.50 | 0.50 | 98 | 1015.6 |
| 20260902003519 | 64 | 83 | 0.0 | 1.0 | 0.00 | 0.50 | 0.50 | 98 | 1015.5 |
| 20260902003027 | 64 | 84 | 0.0 | 1.0 | 0.00 | 0.50 | 0.50 | 98 | 1015.5 |
| 20260902002509 | 65 | 84 | 0.0 | 1.0 | 0.00 | 0.50 | 0.50 | 98 | 1015.4 |
| 20260902002020 | 65 | 84 | 0.0 | 1.0 | 0.00 | 0.50 | 0.50 | 98 | 1015.3 |
| 20260902001520 | 65 | 84 | 0.0 | 1.0 | 0.00 | 0.50 | 0.50 | 98 | 1015.2 |
| 20260902001020 | 65 | 84 | 0.0 | 0.0 | 0.00 | 0.50 | 0.50 | 98 | 1015.2 |
| 20260902000530 | 65 | 83 | 0.0 | 0.0 | 0.00 | 0.50 | 0.50 | 98 | 1015.2 |
| 20260902000014 | 65 | 84 | 0.0 | 0.0 | 0.00 | 0.50 | 0.50 | 98 | 1015.2 |
| 20260901235523 | 65 | 85 | 0.0 | 1.0 | 0.00 | 0.50 | 0.50 | 98 | 1015.2 |
| 20260901235008 | 65 | 84 | 0.0 | 2.0 | 0.00 | 0.50 | 0.50 | 98 | 1015.1 |
| 20260901234518 | 65 | 99 | 0.0 | 3.0 | 0.00 | 0.50 | 0.50 | 98 | 1015.0 |
| 20260901234023 | 65 | 54 | 0.0 | 2.0 | 0.00 | 0.50 | 0.50 | 98 | 1015.0 |
| 20260901233509 | 65 | 94 | 0.0 | 2.0 | 0.00 | 0.50 | 0.50 | 98 | 1015.1 |
| 20260901233013 | 65 | 62 | 0.0 | 2.0 | 0.00 | 0.50 | 0.50 | 98 | 1015.1 |
| 20260901232523 | 65 | 314 | 0.0 | 0.0 | 0.00 | 0.50 | 0.50 | 98 | 1015.2 |
| 20260901232008 | 65 | 314 | 0.0 | 0.0 | 0.00 | 0.50 | 0.50 | 98 | 1015.1 |
| 20260901231525 | 65 | 314 | 0.0 | 0.0 | 0.00 | 0.50 | 0.50 | 98 | 1015.1 |
| 20260901231018 | 65 | 314 | 0.0 | 0.0 | 0.00 | 0.50 | 0.50 | 98 | 1015.1 |
| 20260901230508 | 65 | 314 | 0.0 | 0.0 | 0.00 | 0.50 | 0.50 | 98 | 1015.1 |
| 20260901230013 | 65 | 314 | 0.0 | 1.0 | 0.00 | 0.50 | 0.50 | 98 | 1015.1 |
| 20260901225521 | 65 | 314 | 0.0 | 1.0 | 0.00 | 0.50 | 0.50 | 98 | 1015.2 |
| 20260901225012 | 65 | 315 | 0.0 | 1.0 | 0.00 | 0.50 | 0.50 | 98 | 1015.1 |
| 20260901224525 | 65 | 101 | 0.0 | 1.0 | 0.00 | 0.50 | 0.50 | 98 | 1015.0 |
| 20260901224026 | 65 | 101 | 0.0 | 1.0 | 0.00 | 0.50 | 0.50 | 98 | 1015.1 |
| 20260901223527 | 65 | 101 | 0.0 | 5.0 | 0.00 | 0.50 | 0.50 | 98 | 1015.3 |
| 20260901223014 | 65 | 101 | 0.0 | 5.0 | 0.00 | 0.50 | 0.50 | 98 | 1015.2 |
| 20260901222519 | 65 | 98 | 1.0 | 5.0 | 0.00 | 0.50 | 0.50 | 98 | 1015.2 |
| 20260901222021 | 65 | 53 | 1.0 | 6.0 | 0.00 | 0.50 | 0.50 | 98 | 1015.1 |
| 20260901221526 | 65 | 58 | 0.0 | 6.0 | 0.00 | 0.50 | 0.50 | 98 | 1015.2 |
| 20260901221013 | 65 | 71 | 0.0 | 2.0 | 0.00 | 0.50 | 0.50 | 98 | 1015.2 |
| 20260901220518 | 65 | 70 | 0.0 | 4.0 | 0.00 | 0.50 | 0.50 | 98 | 1015.3 |
| 20260901220025 | 65 | 68 | 0.0 | 4.0 | 0.00 | 0.50 | 0.50 | 98 | 1015.4 |
| 20260901215510 | 65 | 86 | 0.0 | 5.0 | 0.00 | 0.50 | 0.50 | 98 | 1015.3 |
| 20260901215017 | 65 | 106 | 1.0 | 5.0 | 0.00 | 0.50 | 0.50 | 98 | 1015.2 |
| 20260901214529 | 65 | 76 | 0.0 | 3.0 | 0.00 | 0.50 | 0.50 | 97 | 1015.1 |
| 20260901214011 | 65 | 69 | 0.0 | 3.0 | 0.00 | 0.50 | 0.50 | 98 | 1015.0 |
| 20260901213519 | 65 | 79 | 0.0 | 3.0 | 0.00 | 0.50 | 0.50 | 97 | 1015.0 |
| 20260901213038 | 65 | 70 | 0.0 | 5.0 | 0.00 | 0.50 | 0.50 | 97 | 1014.9 |
| 20260901212509 | 65 | 73 | 0.0 | 1.0 | 0.01 | 0.50 | 0.50 | 97 | 1014.9 |
| 20260901212013 | 65 | 68 | 0.0 | 1.0 | 0.01 | 0.50 | 0.50 | 97 | 1014.9 |
| 20260901211519 | 65 | 70 | 0.0 | 2.0 | 0.01 | 0.50 | 0.50 | 97 | 1014.9 |
| 20260901211021 | 65 | 77 | 0.0 | 3.0 | 0.02 | 0.50 | 0.50 | 97 | 1014.8 |
| 20260901210528 | 66 | 72 | 0.0 | 3.0 | 0.02 | 0.50 | 0.50 | 97 | 1014.8 |
| 20260901210011 | 66 | 70 | 0.0 | 2.0 | 0.02 | 0.50 | 0.50 | 97 | 1014.8 |
| 20260901205517 | 66 | 82 | 0.0 | 2.0 | 0.02 | 0.50 | 0.50 | 97 | 1014.8 |
| 20260901205023 | 66 | 86 | 0.0 | 2.0 | 0.02 | 0.50 | 0.50 | 97 | 1014.8 |
| 20260901204511 | 66 | 67 | 0.0 | 2.0 | 0.02 | 0.50 | 0.50 | 97 | 1014.7 |
| 20260901204017 | 66 | 74 | 0.0 | 2.0 | 0.02 | 0.50 | 0.50 | 97 | 1014.7 |
| 20260901203521 | 66 | 70 | 0.0 | 2.0 | 0.02 | 0.50 | 0.50 | 97 | 1014.7 |
| 20260901203033 | 66 | 68 | 0.0 | 1.0 | 0.02 | 0.50 | 0.50 | 97 | 1014.7 |
| 20260901202512 | 66 | 68 | 0.0 | 2.0 | 0.01 | 0.49 | 0.49 | 97 | 1014.8 |
| 20260901202017 | 66 | 68 | 0.0 | 2.0 | 0.01 | 0.49 | 0.49 | 97 | 1014.7 |
| 20260901201527 | 66 | 117 | 0.0 | 2.0 | 0.01 | 0.49 | 0.49 | 97 | 1014.8 |
| 20260901201013 | 66 | 124 | 0.0 | 3.0 | 0.00 | 0.48 | 0.48 | 97 | 1014.8 |
| 20260901200520 | 66 | 60 | 1.0 | 4.0 | 0.00 | 0.48 | 0.48 | 97 | 1014.8 |
| 20260901200023 | 66 | 94 | 0.0 | 2.0 | 0.00 | 0.48 | 0.48 | 97 | 1014.7 |
| 20260901195527 | 66 | 98 | 0.0 | 2.0 | 0.00 | 0.48 | 0.48 | 97 | 1014.7 |
| 20260901195013 | 66 | 60 | 0.0 | 3.0 | 0.00 | 0.48 | 0.48 | 97 | 1014.8 |
| 20260901194521 | 66 | 83 | 1.0 | 4.0 | 0.00 | 0.48 | 0.48 | 97 | 1014.7 |
| 20260901194021 | 66 | 58 | 0.0 | 4.0 | 0.00 | 0.48 | 0.48 | 97 | 1014.8 |
| 20260901193510 | 66 | 69 | 0.0 | 5.0 | 0.01 | 0.48 | 0.48 | 97 | 1014.8 |
| 20260901193016 | 66 | 68 | 0.0 | 5.0 | 0.01 | 0.48 | 0.48 | 97 | 1014.7 |